Year,Month,Day,Hour,Minute,Value (Times are PST for temperature in C)
2009,07,28,00,00,19.80
2009,07,28,00,01,19.70
2009,07,28,00,02,19.70
2009,07,28,00,03,19.70
2009,07,28,00,04,19.80
2009,07,28,00,05,19.80
2009,07,28,00,06,19.80
2009,07,28,00,07,19.70
2009,07,28,00,08,19.70
2009,07,28,00,09,19.70
2009,07,28,00,10,19.70
2009,07,28,00,11,19.70
2009,07,28,00,12,19.70
2009,07,28,00,13,19.70
2009,07,28,00,14,19.70
2009,07,28,00,15,19.70
2009,07,28,00,16,19.70
2009,07,28,00,17,19.70
2009,07,28,00,18,19.70
2009,07,28,00,19,19.70
2009,07,28,00,20,19.70
2009,07,28,00,21,19.70
2009,07,28,00,22,19.60
2009,07,28,00,23,19.60
2009,07,28,00,24,19.60
2009,07,28,00,25,19.60
2009,07,28,00,26,19.60
2009,07,28,00,27,19.60
2009,07,28,00,28,19.50
2009,07,28,00,29,19.50
2009,07,28,00,30,19.40
2009,07,28,00,31,19.30
2009,07,28,00,32,19.30
2009,07,28,00,33,19.30
2009,07,28,00,34,19.20
2009,07,28,00,35,19.20
2009,07,28,00,36,19.10
2009,07,28,00,37,19.10
2009,07,28,00,38,19.00
2009,07,28,00,39,19.00
2009,07,28,00,40,18.90
2009,07,28,00,41,18.90
2009,07,28,00,42,18.90
2009,07,28,00,43,18.80
2009,07,28,00,44,18.80
2009,07,28,00,45,18.80
2009,07,28,00,46,18.80
2009,07,28,00,47,18.70
2009,07,28,00,48,18.70
2009,07,28,00,49,18.70
2009,07,28,00,50,18.70
2009,07,28,00,51,18.70
2009,07,28,00,52,18.70
2009,07,28,00,53,18.60
2009,07,28,00,54,18.60
2009,07,28,00,55,18.60
2009,07,28,00,56,18.60
2009,07,28,00,57,18.60
2009,07,28,00,58,18.60
2009,07,28,00,59,18.60
2009,07,28,01,00,18.60
2009,07,28,01,01,18.60
2009,07,28,01,02,18.50
2009,07,28,01,03,18.50
2009,07,28,01,04,18.50
2009,07,28,01,05,18.50
2009,07,28,01,06,18.50
2009,07,28,01,07,18.50
2009,07,28,01,08,18.50
2009,07,28,01,09,18.50
2009,07,28,01,10,18.50
2009,07,28,01,11,18.50
2009,07,28,01,12,18.50
2009,07,28,01,13,18.50
2009,07,28,01,14,18.50
2009,07,28,01,15,18.50
2009,07,28,01,16,18.60
2009,07,28,01,17,18.50
2009,07,28,01,18,18.50
2009,07,28,01,19,18.50
2009,07,28,01,20,18.50
2009,07,28,01,21,18.50
2009,07,28,01,22,18.50
2009,07,28,01,23,18.50
2009,07,28,01,24,18.50
2009,07,28,01,25,18.40
2009,07,28,01,26,18.40
2009,07,28,01,27,18.40
2009,07,28,01,28,18.40
2009,07,28,01,29,18.40
2009,07,28,01,30,18.40
2009,07,28,01,31,18.40
2009,07,28,01,32,18.40
2009,07,28,01,33,18.40
2009,07,28,01,34,18.40
2009,07,28,01,35,18.40
2009,07,28,01,36,18.40
2009,07,28,01,37,18.40
2009,07,28,01,38,18.40
2009,07,28,01,39,18.40
2009,07,28,01,40,18.40
2009,07,28,01,41,18.40
2009,07,28,01,42,18.40
2009,07,28,01,43,18.40
2009,07,28,01,44,18.40
2009,07,28,01,45,18.40
2009,07,28,01,46,18.40
2009,07,28,01,47,18.40
2009,07,28,01,48,18.40
2009,07,28,01,49,18.40
2009,07,28,01,50,18.40
2009,07,28,01,51,18.40
2009,07,28,01,52,18.40
2009,07,28,01,53,18.40
2009,07,28,01,54,18.40
2009,07,28,01,55,18.40
2009,07,28,01,56,18.40
2009,07,28,01,57,18.40
2009,07,28,01,58,18.40
2009,07,28,01,59,18.40
2009,07,28,02,00,18.40
2009,07,28,02,01,18.40
2009,07,28,02,02,18.40
2009,07,28,02,03,18.40
2009,07,28,02,04,18.40
2009,07,28,02,05,18.40
2009,07,28,02,06,18.40
2009,07,28,02,07,18.40
2009,07,28,02,08,18.40
2009,07,28,02,09,18.40
2009,07,28,02,10,18.40
2009,07,28,02,11,18.40
2009,07,28,02,12,18.40
2009,07,28,02,13,18.40
2009,07,28,02,14,18.40
2009,07,28,02,15,18.40
2009,07,28,02,16,18.40
2009,07,28,02,17,18.40
2009,07,28,02,18,18.40
2009,07,28,02,19,18.30
2009,07,28,02,20,18.30
2009,07,28,02,21,18.30
2009,07,28,02,22,18.30
2009,07,28,02,23,18.20
2009,07,28,02,24,18.20
2009,07,28,02,25,18.20
2009,07,28,02,26,18.10
2009,07,28,02,27,18.10
2009,07,28,02,28,18.00
2009,07,28,02,29,18.00
2009,07,28,02,30,18.00
2009,07,28,02,31,17.90
2009,07,28,02,32,17.90
2009,07,28,02,33,17.90
2009,07,28,02,34,17.90
2009,07,28,02,35,17.90
2009,07,28,02,36,17.90
2009,07,28,02,37,17.90
2009,07,28,02,38,17.90
2009,07,28,02,39,17.90
2009,07,28,02,40,17.90
2009,07,28,02,41,17.90
2009,07,28,02,42,17.90
2009,07,28,02,43,17.90
2009,07,28,02,44,17.90
2009,07,28,02,45,17.90
2009,07,28,02,46,17.90
2009,07,28,02,47,17.90
2009,07,28,02,48,17.90
2009,07,28,02,49,17.90
2009,07,28,02,50,17.90
2009,07,28,02,51,17.90
2009,07,28,02,52,17.90
2009,07,28,02,53,17.90
2009,07,28,02,54,17.90
2009,07,28,02,55,17.90
2009,07,28,02,56,17.90
2009,07,28,02,57,17.90
2009,07,28,02,58,17.90
2009,07,28,02,59,17.90
2009,07,28,03,00,17.90
2009,07,28,03,01,17.90
2009,07,28,03,02,17.90
2009,07,28,03,03,17.90
2009,07,28,03,04,17.90
2009,07,28,03,05,17.90
2009,07,28,03,06,17.90
2009,07,28,03,07,17.90
2009,07,28,03,08,17.90
2009,07,28,03,09,17.90
2009,07,28,03,10,17.90
2009,07,28,03,11,17.90
2009,07,28,03,12,17.80
2009,07,28,03,13,17.80
2009,07,28,03,14,17.80
2009,07,28,03,15,17.80
2009,07,28,03,16,17.80
2009,07,28,03,17,17.80
2009,07,28,03,18,17.80
2009,07,28,03,19,17.80
2009,07,28,03,20,17.80
2009,07,28,03,21,17.80
2009,07,28,03,22,17.80
2009,07,28,03,23,17.80
2009,07,28,03,24,17.80
2009,07,28,03,25,17.80
2009,07,28,03,26,17.80
2009,07,28,03,27,17.80
2009,07,28,03,28,17.80
2009,07,28,03,29,17.80
2009,07,28,03,30,17.80
2009,07,28,03,31,17.80
2009,07,28,03,32,17.80
2009,07,28,03,33,17.80
2009,07,28,03,34,17.80
2009,07,28,03,35,17.80
2009,07,28,03,36,17.80
2009,07,28,03,37,17.80
2009,07,28,03,38,17.80
2009,07,28,03,39,17.80
2009,07,28,03,40,17.80
2009,07,28,03,41,17.80
2009,07,28,03,42,17.80
2009,07,28,03,43,17.80
2009,07,28,03,44,17.80
2009,07,28,03,45,17.80
2009,07,28,03,46,17.80
2009,07,28,03,47,17.80
2009,07,28,03,48,17.90
2009,07,28,03,49,17.90
2009,07,28,03,50,17.90
2009,07,28,03,51,17.90
2009,07,28,03,52,17.90
2009,07,28,03,53,17.90
2009,07,28,03,54,17.90
2009,07,28,03,55,17.90
2009,07,28,03,56,17.90
2009,07,28,03,57,17.90
2009,07,28,03,58,17.90
2009,07,28,03,59,17.90
2009,07,28,04,00,17.90
2009,07,28,04,01,17.80
2009,07,28,04,02,17.80
2009,07,28,04,03,17.80
2009,07,28,04,04,17.90
2009,07,28,04,05,17.90
2009,07,28,04,06,17.90
2009,07,28,04,07,17.90
2009,07,28,04,08,17.90
2009,07,28,04,09,18.00
2009,07,28,04,10,18.00
2009,07,28,04,11,17.90
2009,07,28,04,12,17.90
2009,07,28,04,13,18.00
2009,07,28,04,14,18.00
2009,07,28,04,15,18.00
2009,07,28,04,16,18.00
2009,07,28,04,17,18.00
2009,07,28,04,18,18.00
2009,07,28,04,19,18.00
2009,07,28,04,20,18.10
2009,07,28,04,21,18.10
2009,07,28,04,22,18.10
2009,07,28,04,23,18.10
2009,07,28,04,24,18.10
2009,07,28,04,25,18.10
2009,07,28,04,26,18.10
2009,07,28,04,27,18.10
2009,07,28,04,28,18.10
2009,07,28,04,29,18.20
2009,07,28,04,30,18.10
2009,07,28,04,31,18.10
2009,07,28,04,32,18.10
2009,07,28,04,33,18.10
2009,07,28,04,34,18.10
2009,07,28,04,35,18.10
2009,07,28,04,36,18.10
2009,07,28,04,37,18.10
2009,07,28,04,38,18.10
2009,07,28,04,39,18.10
2009,07,28,04,40,18.00
2009,07,28,04,41,18.00
2009,07,28,04,42,18.00
2009,07,28,04,43,18.00
2009,07,28,04,44,18.00
2009,07,28,04,45,18.00
2009,07,28,04,46,18.00
2009,07,28,04,47,18.00
2009,07,28,04,48,18.00
2009,07,28,04,49,18.00
2009,07,28,04,50,18.00
2009,07,28,04,51,18.00
2009,07,28,04,52,17.90
2009,07,28,04,53,17.90
2009,07,28,04,54,17.90
2009,07,28,04,55,17.90
2009,07,28,04,56,17.90
2009,07,28,04,57,17.90
2009,07,28,04,58,17.90
2009,07,28,04,59,17.90
2009,07,28,05,00,17.90
2009,07,28,05,01,17.90
2009,07,28,05,02,17.80
2009,07,28,05,03,17.80
2009,07,28,05,04,17.80
2009,07,28,05,05,17.80
2009,07,28,05,06,17.80
2009,07,28,05,07,17.70
2009,07,28,05,08,17.70
2009,07,28,05,09,17.70
2009,07,28,05,10,17.70
2009,07,28,05,11,17.80
2009,07,28,05,12,17.80
2009,07,28,05,13,17.80
2009,07,28,05,14,17.80
2009,07,28,05,15,17.70
2009,07,28,05,16,17.70
2009,07,28,05,17,17.70
2009,07,28,05,18,17.80
2009,07,28,05,19,17.80
2009,07,28,05,20,17.80
2009,07,28,05,21,17.80
2009,07,28,05,22,17.80
2009,07,28,05,23,17.80
2009,07,28,05,24,17.80
2009,07,28,05,25,17.70
2009,07,28,05,26,17.70
2009,07,28,05,27,17.80
2009,07,28,05,28,17.70
2009,07,28,05,29,17.80
2009,07,28,05,30,17.80
2009,07,28,05,31,17.80
2009,07,28,05,32,17.80
2009,07,28,05,33,17.80
2009,07,28,05,34,17.80
2009,07,28,05,35,17.80
2009,07,28,05,36,17.80
2009,07,28,05,37,17.80
2009,07,28,05,38,17.80
2009,07,28,05,39,17.80
2009,07,28,05,40,17.80
2009,07,28,05,41,17.80
2009,07,28,05,42,17.80
2009,07,28,05,43,17.80
2009,07,28,05,44,17.80
2009,07,28,05,45,17.80
2009,07,28,05,46,17.80
2009,07,28,05,47,17.80
2009,07,28,05,48,17.80
2009,07,28,05,49,17.80
2009,07,28,05,50,17.80
2009,07,28,05,51,17.80
2009,07,28,05,52,17.80
2009,07,28,05,53,17.80
2009,07,28,05,54,17.80
2009,07,28,05,55,17.80
2009,07,28,05,56,17.80
2009,07,28,05,57,17.80
2009,07,28,05,58,17.80
2009,07,28,05,59,17.80
2009,07,28,06,00,17.80
2009,07,28,06,01,17.80
2009,07,28,06,02,17.80
2009,07,28,06,03,17.80
2009,07,28,06,04,17.80
2009,07,28,06,05,17.80
2009,07,28,06,06,17.80
2009,07,28,06,07,17.80
2009,07,28,06,08,17.80
2009,07,28,06,09,17.80
2009,07,28,06,10,17.80
2009,07,28,06,11,17.80
2009,07,28,06,12,17.90
2009,07,28,06,13,17.90
2009,07,28,06,14,17.90
2009,07,28,06,15,17.90
2009,07,28,06,16,17.90
2009,07,28,06,17,17.90
2009,07,28,06,18,17.90
2009,07,28,06,19,17.90
2009,07,28,06,20,17.90
2009,07,28,06,21,17.90
2009,07,28,06,22,17.90
2009,07,28,06,23,17.90
2009,07,28,06,24,17.90
2009,07,28,06,25,17.90
2009,07,28,06,26,17.90
2009,07,28,06,27,18.00
2009,07,28,06,28,18.00
2009,07,28,06,29,18.00
2009,07,28,06,30,18.10
2009,07,28,06,31,18.10
2009,07,28,06,32,18.10
2009,07,28,06,33,18.00
2009,07,28,06,34,18.00
2009,07,28,06,35,18.00
2009,07,28,06,36,18.00
2009,07,28,06,37,18.10
2009,07,28,06,38,18.10
2009,07,28,06,39,18.10
2009,07,28,06,40,18.10
2009,07,28,06,41,18.10
2009,07,28,06,42,18.10
2009,07,28,06,43,18.20
2009,07,28,06,44,18.20
2009,07,28,06,45,18.20
2009,07,28,06,46,18.20
2009,07,28,06,47,18.20
2009,07,28,06,48,18.20
2009,07,28,06,49,18.20
2009,07,28,06,50,18.20
2009,07,28,06,51,18.30
2009,07,28,06,52,18.30
2009,07,28,06,53,18.30
2009,07,28,06,54,18.30
2009,07,28,06,55,18.30
2009,07,28,06,56,18.30
2009,07,28,06,57,18.40
2009,07,28,06,58,18.40
2009,07,28,06,59,18.40
2009,07,28,07,00,18.40
2009,07,28,07,01,18.50
2009,07,28,07,02,18.50
2009,07,28,07,03,18.50
2009,07,28,07,04,18.50
2009,07,28,07,05,18.60
2009,07,28,07,06,18.60
2009,07,28,07,07,18.60
2009,07,28,07,08,18.60
2009,07,28,07,09,18.70
2009,07,28,07,10,18.70
2009,07,28,07,11,18.70
2009,07,28,07,12,18.70
2009,07,28,07,13,18.70
2009,07,28,07,14,18.80
2009,07,28,07,15,18.80
2009,07,28,07,16,18.80
2009,07,28,07,17,18.80
2009,07,28,07,18,18.80
2009,07,28,07,19,18.80
2009,07,28,07,20,18.90
2009,07,28,07,21,18.90
2009,07,28,07,22,18.90
2009,07,28,07,23,18.90
2009,07,28,07,24,19.00
2009,07,28,07,25,19.00
2009,07,28,07,26,19.10
2009,07,28,07,27,19.10
2009,07,28,07,28,19.10
2009,07,28,07,29,19.20
2009,07,28,07,30,19.30
2009,07,28,07,31,19.30
2009,07,28,07,32,19.40
2009,07,28,07,33,19.50
2009,07,28,07,34,19.50
2009,07,28,07,35,19.60
2009,07,28,07,36,19.70
2009,07,28,07,37,19.70
2009,07,28,07,38,19.80
2009,07,28,07,39,19.80
2009,07,28,07,40,19.90
2009,07,28,07,41,20.00
2009,07,28,07,42,20.00
2009,07,28,07,43,20.10
2009,07,28,07,44,20.20
2009,07,28,07,45,20.30
2009,07,28,07,46,20.40
2009,07,28,07,47,20.40
2009,07,28,07,48,20.50
2009,07,28,07,49,20.60
2009,07,28,07,50,20.60
2009,07,28,07,51,20.70
2009,07,28,07,52,20.80
2009,07,28,07,53,20.90
2009,07,28,07,54,21.00
2009,07,28,07,55,21.10
2009,07,28,07,56,21.20
2009,07,28,07,57,21.30
2009,07,28,07,58,21.40
2009,07,28,07,59,21.40
2009,07,28,08,00,21.50
2009,07,28,08,01,21.60
2009,07,28,08,02,21.60
2009,07,28,08,03,21.70
2009,07,28,08,04,21.70
2009,07,28,08,05,21.80
2009,07,28,08,06,21.80
2009,07,28,08,07,21.80
2009,07,28,08,08,21.90
2009,07,28,08,09,21.90
2009,07,28,08,10,22.00
2009,07,28,08,11,22.10
2009,07,28,08,12,22.10
2009,07,28,08,13,22.10
2009,07,28,08,14,22.20
2009,07,28,08,15,22.20
2009,07,28,08,16,22.20
2009,07,28,08,17,22.30
2009,07,28,08,18,22.30
2009,07,28,08,19,22.40
2009,07,28,08,20,22.40
2009,07,28,08,21,22.50
2009,07,28,08,22,22.50
2009,07,28,08,23,22.60
2009,07,28,08,24,22.60
2009,07,28,08,25,22.70
2009,07,28,08,26,22.70
2009,07,28,08,27,22.70
2009,07,28,08,28,22.80
2009,07,28,08,29,22.80
2009,07,28,08,30,22.80
2009,07,28,08,31,22.80
2009,07,28,08,32,22.80
2009,07,28,08,33,22.90
2009,07,28,08,34,22.90
2009,07,28,08,35,22.90
2009,07,28,08,36,22.90
2009,07,28,08,37,23.00
2009,07,28,08,38,23.00
2009,07,28,08,39,23.00
2009,07,28,08,40,23.00
2009,07,28,08,41,23.10
2009,07,28,08,42,23.10
2009,07,28,08,43,23.10
2009,07,28,08,44,23.20
2009,07,28,08,45,23.20
2009,07,28,08,46,23.20
2009,07,28,08,47,23.20
2009,07,28,08,48,23.30
2009,07,28,08,49,23.30
2009,07,28,08,50,23.40
2009,07,28,08,51,23.40
2009,07,28,08,52,23.50
2009,07,28,08,53,23.50
2009,07,28,08,54,23.60
2009,07,28,08,55,23.60
2009,07,28,08,56,23.70
2009,07,28,08,57,23.70
2009,07,28,08,58,23.80
2009,07,28,08,59,23.80
2009,07,28,09,00,23.90
2009,07,28,09,01,23.90
2009,07,28,09,02,23.90
2009,07,28,09,03,24.00
2009,07,28,09,04,24.00
2009,07,28,09,05,24.10
2009,07,28,09,06,24.10
2009,07,28,09,07,24.20
2009,07,28,09,08,24.20
2009,07,28,09,09,24.30
2009,07,28,09,10,24.30
2009,07,28,09,11,24.40
2009,07,28,09,12,24.40
2009,07,28,09,13,24.50
2009,07,28,09,14,24.50
2009,07,28,09,15,24.50
2009,07,28,09,16,24.50
2009,07,28,09,17,24.50
2009,07,28,09,18,24.40
2009,07,28,09,19,24.40
2009,07,28,09,20,24.40
2009,07,28,09,21,24.40
2009,07,28,09,22,24.50
2009,07,28,09,23,24.50
2009,07,28,09,24,24.60
2009,07,28,09,25,24.60
2009,07,28,09,26,24.60
2009,07,28,09,27,24.60
2009,07,28,09,28,24.60
2009,07,28,09,29,24.60
2009,07,28,09,30,24.60
2009,07,28,09,31,24.60
2009,07,28,09,32,24.70
2009,07,28,09,33,24.70
2009,07,28,09,34,24.80
2009,07,28,09,35,24.90
2009,07,28,09,36,25.00
2009,07,28,09,37,25.10
2009,07,28,09,38,25.20
2009,07,28,09,39,25.20
2009,07,28,09,40,25.20
2009,07,28,09,41,25.20
2009,07,28,09,42,25.20
2009,07,28,09,43,25.20
2009,07,28,09,44,25.30
2009,07,28,09,45,25.30
2009,07,28,09,46,25.30
2009,07,28,09,47,25.30
2009,07,28,09,48,25.30
2009,07,28,09,49,25.30
2009,07,28,09,50,25.30
2009,07,28,09,51,25.40
2009,07,28,09,52,25.40
2009,07,28,09,53,25.40
2009,07,28,09,54,25.40
2009,07,28,09,55,25.50
2009,07,28,09,56,25.60
2009,07,28,09,57,25.60
2009,07,28,09,58,25.60
2009,07,28,09,59,25.50
2009,07,28,10,00,25.50
2009,07,28,10,01,25.50
2009,07,28,10,02,25.50
2009,07,28,10,03,25.60
2009,07,28,10,04,25.70
2009,07,28,10,05,25.70
2009,07,28,10,06,25.80
2009,07,28,10,07,25.80
2009,07,28,10,08,25.80
2009,07,28,10,09,25.80
2009,07,28,10,10,25.80
2009,07,28,10,11,25.80
2009,07,28,10,12,25.80
2009,07,28,10,13,25.70
2009,07,28,10,14,25.60
2009,07,28,10,15,25.60
2009,07,28,10,16,25.60
2009,07,28,10,17,25.60
2009,07,28,10,18,25.70
2009,07,28,10,19,25.80
2009,07,28,10,20,25.80
2009,07,28,10,21,25.80
2009,07,28,10,22,25.90
2009,07,28,10,23,25.90
2009,07,28,10,24,26.00
2009,07,28,10,25,26.00
2009,07,28,10,26,26.00
2009,07,28,10,27,26.00
2009,07,28,10,28,26.00
2009,07,28,10,29,26.00
2009,07,28,10,30,26.00
2009,07,28,10,31,26.00
2009,07,28,10,32,26.10
2009,07,28,10,33,26.10
2009,07,28,10,34,26.10
2009,07,28,10,35,26.10
2009,07,28,10,36,26.10
2009,07,28,10,37,26.10
2009,07,28,10,38,26.20
2009,07,28,10,39,26.30
2009,07,28,10,40,26.30
2009,07,28,10,41,26.30
2009,07,28,10,42,26.30
2009,07,28,10,43,26.30
2009,07,28,10,44,26.30
2009,07,28,10,45,26.30
2009,07,28,10,46,26.40
2009,07,28,10,47,26.40
2009,07,28,10,48,26.50
2009,07,28,10,49,26.50
2009,07,28,10,50,26.50
2009,07,28,10,51,26.40
2009,07,28,10,52,26.30
2009,07,28,10,53,26.30
2009,07,28,10,54,26.20
2009,07,28,10,55,26.20
2009,07,28,10,56,26.20
2009,07,28,10,57,26.30
2009,07,28,10,58,26.30
2009,07,28,10,59,26.30
2009,07,28,11,00,26.30
2009,07,28,11,01,26.30
2009,07,28,11,02,26.40
2009,07,28,11,03,26.40
2009,07,28,11,04,26.50
2009,07,28,11,05,26.70
2009,07,28,11,06,26.80
2009,07,28,11,07,27.00
2009,07,28,11,08,27.10
2009,07,28,11,09,27.20
2009,07,28,11,10,27.30
2009,07,28,11,11,27.30
2009,07,28,11,12,27.40
2009,07,28,11,13,27.30
2009,07,28,11,14,27.30
2009,07,28,11,15,27.40
2009,07,28,11,16,27.40
2009,07,28,11,17,27.50
2009,07,28,11,18,27.60
2009,07,28,11,19,27.70
2009,07,28,11,20,27.80
2009,07,28,11,21,27.90
2009,07,28,11,22,27.90
2009,07,28,11,23,28.00
2009,07,28,11,24,28.00
2009,07,28,11,25,28.10
2009,07,28,11,26,28.10
2009,07,28,11,27,28.10
2009,07,28,11,28,28.20
2009,07,28,11,29,28.30
2009,07,28,11,30,28.30
2009,07,28,11,31,28.30
2009,07,28,11,32,28.30
2009,07,28,11,33,28.30
2009,07,28,11,34,28.40
2009,07,28,11,35,28.30
2009,07,28,11,36,28.30
2009,07,28,11,37,28.30
2009,07,28,11,38,28.30
2009,07,28,11,39,28.30
2009,07,28,11,40,28.40
2009,07,28,11,41,28.40
2009,07,28,11,42,28.40
2009,07,28,11,43,28.40
2009,07,28,11,44,28.40
2009,07,28,11,45,28.40
2009,07,28,11,46,28.50
2009,07,28,11,47,28.50
2009,07,28,11,48,28.50
2009,07,28,11,49,28.40
2009,07,28,11,50,28.40
2009,07,28,11,51,28.40
2009,07,28,11,52,28.40
2009,07,28,11,53,28.40
2009,07,28,11,54,28.30
2009,07,28,11,55,28.30
2009,07,28,11,56,28.20
2009,07,28,11,57,28.20
2009,07,28,11,58,28.10
2009,07,28,11,59,28.00
2009,07,28,12,00,27.90
2009,07,28,12,01,27.90
2009,07,28,12,02,27.80
2009,07,28,12,03,27.70
2009,07,28,12,04,27.70
2009,07,28,12,05,27.70
2009,07,28,12,06,27.70
2009,07,28,12,07,27.70
2009,07,28,12,08,27.70
2009,07,28,12,09,27.80
2009,07,28,12,10,27.90
2009,07,28,12,11,28.00
2009,07,28,12,12,28.10
2009,07,28,12,13,28.20
2009,07,28,12,14,28.30
2009,07,28,12,15,28.40
2009,07,28,12,16,28.50
2009,07,28,12,17,28.60
2009,07,28,12,18,28.70
2009,07,28,12,19,28.80
2009,07,28,12,20,28.90
2009,07,28,12,21,29.00
2009,07,28,12,22,29.10
2009,07,28,12,23,29.20
2009,07,28,12,24,29.30
2009,07,28,12,25,29.40
2009,07,28,12,26,29.40
2009,07,28,12,27,29.40
2009,07,28,12,28,29.30
2009,07,28,12,29,29.20
2009,07,28,12,30,29.20
2009,07,28,12,31,29.10
2009,07,28,12,32,29.00
2009,07,28,12,33,28.90
2009,07,28,12,34,28.80
2009,07,28,12,35,28.70
2009,07,28,12,36,28.60
2009,07,28,12,37,28.50
2009,07,28,12,38,28.40
2009,07,28,12,39,28.30
2009,07,28,12,40,28.30
2009,07,28,12,41,28.30
2009,07,28,12,42,28.30
2009,07,28,12,43,28.30
2009,07,28,12,44,28.30
2009,07,28,12,45,28.30
2009,07,28,12,46,28.30
2009,07,28,12,47,28.40
2009,07,28,12,48,28.50
2009,07,28,12,49,28.60
2009,07,28,12,50,28.60
2009,07,28,12,51,28.70
2009,07,28,12,52,28.80
2009,07,28,12,53,28.70
2009,07,28,12,54,28.70
2009,07,28,12,55,28.70
2009,07,28,12,56,28.80
2009,07,28,12,57,28.80
2009,07,28,12,58,28.80
2009,07,28,12,59,28.80
2009,07,28,13,00,28.80
2009,07,28,13,01,28.80
2009,07,28,13,02,28.70
2009,07,28,13,03,28.60
2009,07,28,13,04,28.60
2009,07,28,13,05,28.60
2009,07,28,13,06,28.60
2009,07,28,13,07,28.60
2009,07,28,13,08,28.60
2009,07,28,13,09,28.50
2009,07,28,13,10,28.40
2009,07,28,13,11,28.30
2009,07,28,13,12,28.20
2009,07,28,13,13,28.10
2009,07,28,13,14,28.10
2009,07,28,13,15,28.20
2009,07,28,13,16,28.20
2009,07,28,13,17,28.20
2009,07,28,13,18,28.20
2009,07,28,13,19,28.20
2009,07,28,13,20,28.30
2009,07,28,13,21,28.30
2009,07,28,13,22,28.30
2009,07,28,13,23,28.40
2009,07,28,13,24,28.50
2009,07,28,13,25,28.50
2009,07,28,13,26,28.60
2009,07,28,13,27,28.70
2009,07,28,13,28,28.60
2009,07,28,13,29,28.30
2009,07,28,13,30,28.10
2009,07,28,13,31,28.10
2009,07,28,13,32,28.00
2009,07,28,13,33,28.00
2009,07,28,13,34,28.00
2009,07,28,13,35,28.10
2009,07,28,13,36,28.10
2009,07,28,13,37,28.20
2009,07,28,13,38,28.20
2009,07,28,13,39,28.20
2009,07,28,13,40,28.20
2009,07,28,13,41,28.20
2009,07,28,13,42,28.20
2009,07,28,13,43,28.20
2009,07,28,13,44,28.30
2009,07,28,13,45,28.20
2009,07,28,13,46,28.20
2009,07,28,13,47,28.20
2009,07,28,13,48,28.30
2009,07,28,13,49,28.40
2009,07,28,13,50,28.50
2009,07,28,13,51,28.60
2009,07,28,13,52,28.70
2009,07,28,13,53,28.70
2009,07,28,13,54,28.70
2009,07,28,13,55,28.70
2009,07,28,13,56,28.70
2009,07,28,13,57,28.70
2009,07,28,13,58,28.80
2009,07,28,13,59,28.80
2009,07,28,14,00,28.80
2009,07,28,14,01,28.70
2009,07,28,14,02,28.60
2009,07,28,14,03,28.60
2009,07,28,14,04,28.60
2009,07,28,14,05,28.70
2009,07,28,14,06,28.60
2009,07,28,14,07,28.50
2009,07,28,14,08,28.50
2009,07,28,14,09,28.60
2009,07,28,14,10,28.60
2009,07,28,14,11,28.60
2009,07,28,14,12,28.50
2009,07,28,14,13,28.50
2009,07,28,14,14,28.60
2009,07,28,14,15,28.70
2009,07,28,14,16,28.80
2009,07,28,14,17,28.90
2009,07,28,14,18,29.00
2009,07,28,14,19,29.20
2009,07,28,14,20,29.30
2009,07,28,14,21,29.30
2009,07,28,14,22,29.30
2009,07,28,14,23,29.30
2009,07,28,14,24,29.30
2009,07,28,14,25,29.40
2009,07,28,14,26,29.50
2009,07,28,14,27,29.60
2009,07,28,14,28,29.70
2009,07,28,14,29,29.80
2009,07,28,14,30,29.80
2009,07,28,14,31,29.90
2009,07,28,14,32,30.00
2009,07,28,14,33,30.10
2009,07,28,14,34,30.10
2009,07,28,14,35,30.20
2009,07,28,14,36,30.20
2009,07,28,14,37,30.30
2009,07,28,14,38,30.40
2009,07,28,14,39,30.50
2009,07,28,14,40,30.60
2009,07,28,14,41,30.60
2009,07,28,14,42,30.60
2009,07,28,14,43,30.60
2009,07,28,14,44,30.70
2009,07,28,14,45,30.70
2009,07,28,14,46,30.70
2009,07,28,14,47,30.70
2009,07,28,14,48,30.50
2009,07,28,14,49,30.30
2009,07,28,14,50,30.20
2009,07,28,14,51,30.10
2009,07,28,14,52,30.10
2009,07,28,14,53,30.20
2009,07,28,14,54,30.30
2009,07,28,14,55,30.30
2009,07,28,14,56,30.40
2009,07,28,14,57,30.50
2009,07,28,14,58,30.60
2009,07,28,14,59,30.60
2009,07,28,15,00,30.60
2009,07,28,15,01,30.60
2009,07,28,15,02,30.60
2009,07,28,15,03,30.60
2009,07,28,15,04,30.70
2009,07,28,15,05,30.60
2009,07,28,15,06,30.60
2009,07,28,15,07,30.60
2009,07,28,15,08,30.50
2009,07,28,15,09,30.40
2009,07,28,15,10,30.50
2009,07,28,15,11,30.50
2009,07,28,15,12,30.60
2009,07,28,15,13,30.60
2009,07,28,15,14,30.60
2009,07,28,15,15,30.60
2009,07,28,15,16,30.70
2009,07,28,15,17,30.80
2009,07,28,15,18,30.90
2009,07,28,15,19,31.00
2009,07,28,15,20,31.00
2009,07,28,15,21,31.00
2009,07,28,15,22,31.10
2009,07,28,15,23,31.10
2009,07,28,15,24,31.10
2009,07,28,15,25,31.20
2009,07,28,15,26,31.30
2009,07,28,15,27,31.30
2009,07,28,15,28,31.40
2009,07,28,15,29,31.50
2009,07,28,15,30,31.50
2009,07,28,15,31,31.50
2009,07,28,15,32,31.60
2009,07,28,15,33,31.60
2009,07,28,15,34,31.70
2009,07,28,15,35,31.70
2009,07,28,15,36,31.50
2009,07,28,15,37,31.50
2009,07,28,15,38,31.50
2009,07,28,15,39,31.40
2009,07,28,15,40,31.30
2009,07,28,15,41,31.30
2009,07,28,15,42,31.30
2009,07,28,15,43,31.30
2009,07,28,15,44,31.40
2009,07,28,15,45,31.40
2009,07,28,15,46,31.30
2009,07,28,15,47,31.00
2009,07,28,15,48,30.90
2009,07,28,15,49,30.80
2009,07,28,15,50,30.70
2009,07,28,15,51,30.70
2009,07,28,15,52,30.70
2009,07,28,15,53,30.80
2009,07,28,15,54,30.80
2009,07,28,15,55,30.70
2009,07,28,15,56,30.50
2009,07,28,15,57,30.40
2009,07,28,15,58,30.30
2009,07,28,15,59,30.30
2009,07,28,16,00,30.30
2009,07,28,16,01,30.30
2009,07,28,16,02,30.40
2009,07,28,16,03,30.50
2009,07,28,16,04,30.60
2009,07,28,16,05,30.60
2009,07,28,16,06,30.80
2009,07,28,16,07,30.90
2009,07,28,16,08,31.10
2009,07,28,16,09,31.20
2009,07,28,16,10,31.30
2009,07,28,16,11,31.40
2009,07,28,16,12,31.50
2009,07,28,16,13,31.60
2009,07,28,16,14,31.70
2009,07,28,16,15,31.70
2009,07,28,16,16,31.70
2009,07,28,16,17,31.70
2009,07,28,16,18,31.80
2009,07,28,16,19,31.80
2009,07,28,16,20,31.80
2009,07,28,16,21,31.80
2009,07,28,16,22,31.90
2009,07,28,16,23,32.00
2009,07,28,16,24,32.00
2009,07,28,16,25,32.10
2009,07,28,16,26,32.10
2009,07,28,16,27,32.20
2009,07,28,16,28,32.20
2009,07,28,16,29,32.30
2009,07,28,16,30,32.30
2009,07,28,16,31,32.50
2009,07,28,16,32,32.50
2009,07,28,16,33,32.60
2009,07,28,16,34,32.70
2009,07,28,16,35,32.70
2009,07,28,16,36,32.80
2009,07,28,16,37,32.80
2009,07,28,16,38,32.80
2009,07,28,16,39,32.90
2009,07,28,16,40,32.90
2009,07,28,16,41,33.00
2009,07,28,16,42,33.10
2009,07,28,16,43,33.10
2009,07,28,16,44,33.10
2009,07,28,16,45,33.10
2009,07,28,16,46,33.10
2009,07,28,16,47,33.00
2009,07,28,16,48,32.80
2009,07,28,16,49,32.70
2009,07,28,16,50,32.60
2009,07,28,16,51,32.50
2009,07,28,16,52,32.40
2009,07,28,16,53,32.40
2009,07,28,16,54,32.40
2009,07,28,16,55,32.50
2009,07,28,16,56,32.50
2009,07,28,16,57,32.60
2009,07,28,16,58,32.70
2009,07,28,16,59,32.80
2009,07,28,17,00,32.90
2009,07,28,17,01,32.90
2009,07,28,17,02,32.90
2009,07,28,17,03,32.80
2009,07,28,17,04,32.70
2009,07,28,17,05,32.70
2009,07,28,17,06,32.70
2009,07,28,17,07,32.70
2009,07,28,17,08,32.70
2009,07,28,17,09,32.70
2009,07,28,17,10,32.60
2009,07,28,17,11,32.60
2009,07,28,17,12,32.50
2009,07,28,17,13,32.50
2009,07,28,17,14,32.40
2009,07,28,17,15,32.30
2009,07,28,17,16,32.10
2009,07,28,17,17,32.10
2009,07,28,17,18,32.10
2009,07,28,17,19,32.00